Aérodrome :
LOGIN :

S'inscrire | Disclaimer

   EN    FR    IT 

 










Légende :    VFR   VFR Marginal   IFR   IFR Intensif   IFR Très Intensif
Visi : 
Plafond : 
>= 8 km
>= 3000ft
5 à 8 km
1000 à 3000 ft
1500m à 5 km
500 à 1000 ft
800 à 1500m
200 à 500 ft
< 800m
< 200 ft
Symboles :   Orages  Brouillard  Fortes neiges  Fortes précipitations  Vent > 20 kt
SIGMETs :   Divers  Orages  Givrage  Turbulence  Onde Orograph.  Cendres Volcan.






- Altitude de l'aérodrome : 782 ft
- Code IATA : BGY


LIME - Orio al Serio International - Bergamo

DERNIER METAR :
  • 050650Z VRB01KT CAVOK 17/13 Q0997 NOSIG

METARs EXPIRÉS :
  • 050620Z VRB02KT CAVOK 16/13 Q0997 NOSIG
  • 050550Z VRB02KT 9999 SCT100 14/13 Q0997 NOSIG
  • 050520Z 01003KT 300V030 9999 FEW020 SCT100 14/13 Q0997 NOSIG
  • 050450Z 03002KT 9999 SCT020 SCT100 13/13 Q0997 NOSIG
  • 050420Z VRB02KT 9999 SCT020 SCT100 14/13 Q0996 NOSIG

TAF TAF LIME
Valide du 05 à 06h jusqu'au 06 à 06h UTC


050500Z 0506/0606 VRB05KT 9999 BKN040



MET'MAP, la Météo Aéronautique d'un coup d'oeil ! - Copyright ORBIFLY Décembre 2007 - Disclaimer

ORBIFLY MET'MAP TEAM :

Programmation & Développement : Alexandra Zaïnal
Sur une idée originale de : Baudouin d'Aumeries
Assistance à la programmation : Marc-Olivier Méhu
Soutien technique & logistique : Manuel Goepfert

Contact : metmap@orbifly.com




SOURCES & CREDITS :

   NOAA